Starlink 4482

operational
NORAD ID: 53530 Int'l Des: 2022-101 Owner: SPXS Country: US Constellation: starlink
LEOCIRCULAR

About Starlink 4482

Description loading...

Live Position

Loading 3D Globe...

Upcoming Passes

Altitude History

Altitude vs Time

uPlot chart will show altitude changes over time

Two-Line Element Set

1 53530U 22101D 26049.57731048 .00000295 00000-0 36605-4 0 9998
2 53530 53.2164 160.1414 0001035 83.6547 276.4563 15.08841570193272
Epoch: Feb 18, 2026 • Age: 10 hours

Current Status

Altitude 542.0 km
Velocity 7.59 km/s
Sub-Earth Point -7.27°S, 168.74°W
Launch Date Aug 19, 2022
Age 3.5 years
Type internet

Technical Details

Classification Payload
Mass 300.00 kg
Dry Mass 290.00 kg
Total Mass 300.00 kg
Length 0.20 m
Diameter 2.80 m
Span 9.00 m
Shape Box + pan
Manufacturer SPXS
Bus Type Starlink
Phase Status In Orbit
Owner/State SPXS/US

Large Constellations

Loading constellations...